This is the latest recevied weather packets stored in our database for station/object K7SKM. If no packets are shown the sender has not sent any weather packets the latest 10 day(s).
| Time | Temp. | Humidity | Pressure | Rain* | Wind** | Luminosity | Snow |
|---|---|---|---|---|---|---|---|
| 1788388874 | 15.56° C | 88% | 1009.5 hPa | 3.56 mm | - | 35 W/m² | - |
| 1788388570 | 15.56° C | 88% | 1009.4 hPa | 1.78 mm | - | 35 W/m² | - |
| 1788388269 | 15.56° C | 87% | 1009.5 hPa | 0 mm | - | 40 W/m² | - |
| 1788387968 | 15.56° C | 88% | 1009.2 hPa | 1.78 mm | - | 44 W/m² | - |
| 1788387688 | 15.56° C | 87% | 1009.2 hPa | 3.56 mm | - | 44 W/m² | - |
| 1788387361 | 15.56° C | 86% | 1009.4 hPa | 1.78 mm | - | 45 W/m² | - |
| 1788387056 | 15.56° C | 86% | 1009 hPa | 1.78 mm | - | 47 W/m² | - |
| 1788386752 | 15.56° C | 85% | 1009.2 hPa | 1.78 mm | - | 44 W/m² | - |
| 1788386446 | 15.56° C | 85% | 1009.5 hPa | 1.78 mm | - | 44 W/m² | - |
| 1788386143 | 15.56° C | 84% | 1009.3 hPa | 3.56 mm | - | 38 W/m² | - |
| 1788385838 | 15.56° C | 83% | 1009.5 hPa | 1.78 mm | - | 40 W/m² | - |
| 1788385532 | 15.56° C | 82% | 1009.4 hPa | 0 mm | - | 40 W/m² | - |
| 1788385231 | 15.56° C | 81% | 1009.4 hPa | 1.78 mm | - | 46 W/m² | - |
| 1788384927 | 16.11° C | 81% | 1009.4 hPa | 1.78 mm | - | 48 W/m² | - |
| 1788384626 | 16.11° C | 79% | 1009.2 hPa | 0 mm | - | 49 W/m² | - |
| 1788384322 | 16.11° C | 78% | 1009.3 hPa | 0 mm | - | 48 W/m² | - |
| 1788384018 | 16.11° C | 77% | 1009.2 hPa | 0 mm | - | 64 W/m² | - |
| 1788383714 | 16.67° C | 78% | 1009.3 hPa | 1.78 mm | - | 76 W/m² | - |
| 1788383409 | 16.67° C | 76% | 1009.3 hPa | 1.78 mm | - | 76 W/m² | - |
| 1788383109 | 17.22° C | 75% | 1009.2 hPa | 0 mm | - | 58 W/m² | - |
| 1788382808 | 17.22° C | 74% | 1009.5 hPa | 1.78 mm | - | 59 W/m² | - |
| 1788382502 | 17.22° C | 73% | 1009.3 hPa | 1.78 mm | - | 61 W/m² | - |
| 1788382198 | 17.22° C | 71% | 1009.3 hPa | 0 mm | - | 57 W/m² | - |
| 1788381897 | 17.78° C | 71% | 1009.3 hPa | 0 mm | - | 59 W/m² | - |
| 1788381593 | 17.78° C | 69% | 1009.3 hPa | 0 mm | - | 55 W/m² | - |
* Rain latest hour (hover to see other rain measurements)
** Current wind speed in m/s (hover to see current wind gust speed)